Content
SEND FEEDBACK

Daily
Averages
Monthly
Summary
United States of America

NEOSHO, MISSOURI


Home > North America > United States > Missouri
Elevation: 1097 feet     Latitude: 36 52N     Longitude: 094 22W

WEATHER
 
SELECT A DAY
Number of Records: 122,967;   Date Range: 2/5/09 - 7/24/14
 
SHARE

PRINT THIS DATA

[ ← Previous Day ]
WEATHER ALMANAC - FEBRUARY 13, 2013
[ Next Day → ]
[ °C ]   °F
Weather ElementAverageHighLow
Temperature36.9 °F46.4 °F (3:15 pm)32 °F (12:35 am)
Dewpoint32.5 °F35.6 °F (12:55 pm)32 °F (12:35 am)
Humidity85.5 %100 % (12:35 am)57 % (3:15 pm)
Barometer29.93 in29.97 in (7:35 am)29.90 in (4:55 pm)
Wind Speed8.1 mph15 mph (10:35 am)
Wind Gust17.3 mph (10:55 am)
Weather ElementAverage
Visibility6.6 mi
Wind DirectionSW (223.4 °)

Weather ElementTotal
Precipitation0.05 in
Heating Degree Days25.8 (Base 65)
Averaged from 70 records on February 13, 2013
WEATHER CONDITIONS BREAKOUT
WIND DIRECTION BREAKOUT
WEATHER BY HOUR - FEBRUARY 13, 2013
[ °C ]   °F
Local TimeTemperatureDewpointHumidityBarometerVisibilityWind DirectionWind SpeedGust SpeedPrecipitationEventsConditions
12:35 AM32.0 °F32.0 °F100 %29.95 in1.5 miNorth (10°)3.5 mph0.02 inSnowLight Snow
12:55 AM32.0 °F32.0 °F100 %29.94 in2.5 miNorth (350°)3.5 mph0.03 inSnowLight Snow
1:15 AM32.0 °F32.0 °F100 %29.94 in5.0 miNNW (340°)4.6 mphRainLight Rain
1:35 AM32.0 °F32.0 °F100 %29.95 in5.0 miNNW (340°)5.8 mphOvercast
1:55 AM32.0 °F32.0 °F100 %29.95 in4.0 miNNW (330°)4.6 mphRainLight Rain
2:15 AM32.0 °F32.0 °F100 %29.94 in4.0 miNNW (330°)4.6 mphRainLight Rain
2:35 AM32.0 °F32.0 °F100 %29.94 in2.0 miNNW (330°)4.6 mphSnowLight Snow
2:55 AM32.0 °F32.0 °F100 %29.94 in1.5 miNW (320°)4.6 mphSnowLight Snow
3:15 AM32.0 °F32.0 °F100 %29.93 in2.0 miCalmSnowLight Snow
3:35 AM32.0 °F32.0 °F100 %29.93 in2.5 miCalmSnowLight Snow
3:55 AM32.0 °F32.0 °F100 %29.92 in2.5 miCalmSnowLight Snow
4:15 AM32.0 °F32.0 °F100 %29.93 in2.5 miCalmOvercast
4:35 AM32.0 °F32.0 °F100 %29.93 in2.5 miWest (260°)3.5 mphSnowLight Snow
4:55 AM32.0 °F32.0 °F100 %29.93 in1.8 miWest (270°)5.8 mphOvercast
5:15 AM32.0 °F32.0 °F100 %29.93 in0.5 miWest (270°)4.6 mphFogFog
5:35 AM32.0 °F32.0 °F100 %29.94 in0.5 miWSW (250°)3.5 mphFogFog
5:55 AM32.0 °F32.0 °F100 %29.94 in0.5 miCalmFogFog
6:15 AM32.0 °F32.0 °F100 %29.94 in0.2 miSW (230°)3.5 mphFogFog
6:35 AM32.0 °F32.0 °F100 %29.95 in0.2 miWSW (240°)3.5 mphFogFog
6:55 AM32.0 °F32.0 °F100 %29.96 in0.2 miSW (230°)4.6 mphFogLight Freezing Fog
7:15 AM32.0 °F32.0 °F100 %29.96 in0.2 miWSW (240°)5.8 mphFogLight Freezing Fog
7:35 AM32.0 °F32.0 °F100 %29.97 in0.2 miWSW (240°)8.1 mphFogLight Freezing Fog
7:55 AM32.0 °F32.0 °F100 %29.96 in0.8 miSW (230°)8.1 mphOvercast
8:15 AM32.0 °F32.0 °F100 %29.97 in0.5 miSW (220°)5.8 mphFogFog
8:35 AM32.0 °F32.0 °F100 %29.96 in1.5 miSW (230°)9.2 mphOvercast
8:55 AM32.0 °F32.0 °F100 %29.96 in1.5 miSW (220°)10.4 mphOvercast
9:15 AM32.0 °F32.0 °F100 %29.96 in2.0 miSW (230°)12.7 mphOvercast
9:35 AM32.0 °F32.0 °F100 %29.96 in5.0 miSW (230°)11.5 mph16.1 mphOvercast
9:55 AM32.0 °F32.0 °F100 %29.96 in5.0 miWSW (240°)12.7 mphOvercast
10:15 AM33.8 °F33.8 °F100 %29.97 in5.0 miWSW (240°)13.8 mphOvercast
10:35 AM33.8 °F33.8 °F100 %29.97 in7.0 miWSW (250°)15.0 mphOvercast
10:55 AM35.6 °F33.8 °F93 %29.97 in10.0 miWSW (240°)10.4 mph17.3 mphOvercast
11:15 AM35.6 °F33.8 °F93 %29.97 in10.0 miWSW (250°)11.5 mphOvercast
11:35 AM35.6 °F33.8 °F93 %29.97 in10.0 miWest (260°)12.7 mphOvercast
11:55 AM37.4 °F33.8 °F87 %29.97 in10.0 miWSW (250°)12.7 mphOvercast
12:15 PM37.4 °F33.8 °F87 %29.97 in10.0 miWest (260°)12.7 mphOvercast
12:35 PM39.2 °F33.8 °F81 %29.96 in10.0 miWSW (240°)11.5 mphMostly Cloudy
12:55 PM41.0 °F35.6 °F81 %29.95 in10.0 miSW (230°)10.4 mphMostly Cloudy
1:15 PM41.0 °F35.6 °F81 %29.94 in10.0 miSW (230°)11.5 mphMostly Cloudy
1:35 PM42.8 °F33.8 °F70 %29.93 in10.0 miWSW (240°)11.5 mphScattered Clouds
1:55 PM42.8 °F33.8 °F70 %29.93 in10.0 miSW (230°)12.7 mphClear
2:15 PM44.6 °F33.8 °F66 %29.93 in10.0 miWSW (250°)15.0 mphClear
2:35 PM44.6 °F33.8 °F66 %29.92 in10.0 miWSW (250°)13.8 mphClear
2:55 PM44.6 °F33.8 °F66 %29.93 in10.0 miWSW (250°)13.8 mphClear
3:15 PM46.4 °F32.0 °F57 %29.92 in10.0 miWest (270°)9.2 mphClear
3:35 PM46.4 °F32.0 °F57 %29.91 in10.0 miWest (260°)11.5 mphClear
3:55 PM46.4 °F33.8 °F62 %29.91 in10.0 miSW (230°)12.7 mphClear
4:15 PM46.4 °F32.0 °F57 %29.91 in10.0 miWSW (250°)11.5 mphClear
4:35 PM46.4 °F32.0 °F57 %29.91 in10.0 miWSW (240°)11.5 mphClear
4:55 PM46.4 °F32.0 °F57 %29.90 in10.0 miSW (220°)11.5 mphClear
5:15 PM44.6 °F32.0 °F61 %29.90 in10.0 miSW (220°)9.2 mphClear
5:35 PM44.6 °F32.0 °F61 %29.90 in10.0 miSW (220°)8.1 mphClear
5:55 PM42.8 °F32.0 °F66 %29.90 in10.0 miSW (220°)6.9 mphClear
6:15 PM41.0 °F32.0 °F70 %29.90 in10.0 miSW (230°)5.8 mphClear
6:35 PM41.0 °F32.0 °F70 %29.90 in10.0 miSW (220°)8.1 mphClear
6:55 PM41.0 °F32.0 °F70 %29.90 in10.0 miSW (220°)8.1 mphClear
7:15 PM39.2 °F32.0 °F75 %29.90 in10.0 miSSW (210°)9.2 mphClear
7:35 PM39.2 °F32.0 °F75 %29.90 in10.0 miSSW (200°)8.1 mphClear
7:55 PM39.2 °F32.0 °F75 %29.91 in10.0 miSSW (210°)8.1 mphClear
8:15 PM37.4 °F32.0 °F81 %29.91 in10.0 miSSW (210°)9.2 mphClear
8:35 PM39.2 °F32.0 °F75 %29.91 in10.0 miSSW (210°)9.2 mphClear
8:55 PM39.2 °F32.0 °F75 %29.91 in10.0 miSSW (210°)9.2 mphClear
9:15 PM37.4 °F32.0 °F81 %29.91 in10.0 miSW (220°)6.9 mphClear
9:35 PM37.4 °F32.0 °F81 %29.91 in10.0 miSW (220°)8.1 mphClear
9:55 PM37.4 °F32.0 °F81 %29.92 in10.0 miSSW (210°)8.1 mphClear
10:15 PM37.4 °F32.0 °F81 %29.91 in10.0 miSW (220°)9.2 mphClear
10:35 PM37.4 °F32.0 °F81 %29.92 in10.0 miSSW (210°)8.1 mphClear
10:55 PM37.4 °F32.0 °F81 %29.92 in10.0 miSW (220°)9.2 mphClear
11:15 PM37.4 °F32.0 °F81 %29.92 in10.0 miSW (220°)8.1 mphClear
11:55 PM37.4 °F32.0 °F81 %29.92 in10.0 miSW (220°)6.9 mphClear
Hourly data recorded from KHFJ, located miles away from Neosho, Missouri







STORIES FROM OUR PARTNERS